Location: Spring Creek
(38.2870°N, 100.2160°W)
Time: 23:46:27
(UTC+00:00)

Resurs 01 Rocket - Pass Details

Date: 08 May 2021
Orbit: 633 x 645 km, 97.9° (Epoch: 21 June)

Event Time Altitude Azimuth Distance (km) Brightness Sun altitude
Exits shadow 04:14:08 19° 232° (SW) 1,524 3.5 -25.2°
Maximum altitude 04:15:50 24° 265° (W) 1,337 3.5 -25.4°
Drops below altitude 10° 04:19:27 10° 319° (NW) 2,045 5.2 -25.8°
Sets 04:22:02 0° 333° (NNW) 2,958 6.3 -26.1°
